EW3857 Weather Reports


Display with metric or nautical units.
time (UTC)temp
F
wind
direction
speed
MPH
gust
MPH
rain 1hr
in
rain 24hr
in
rain mn
in
humidity
%
barometer
mb
20260901140759 80 169 0.0 0.0 0.00 0.00 0.00 92 1023.1
20260901140258 80 175 0.0 0.0 0.00 0.00 0.00 92 1023.1
20260901135753 80 174 0.0 0.0 0.00 0.00 0.00 92 1023.2
20260901135247 79 176 0.0 0.0 0.00 0.00 0.00 93 1023.0
20260901134743 79 170 0.0 0.0 0.00 0.00 0.00 93 1023.1
20260901134243 79 169 0.0 0.0 0.00 0.00 0.00 93 1023.0
20260901133742 79 177 0.0 0.0 0.00 0.00 0.00 93 1023.0
20260901133236 79 170 0.0 0.0 0.00 0.00 0.00 93 1023.2
20260901132734 79 163 0.0 0.0 0.00 0.00 0.00 93 1023.1
20260901132230 79 169 0.0 0.0 0.00 0.00 0.00 94 1023.1
20260901131724 79 176 0.0 0.0 0.00 0.00 0.00 94 1023.1
20260901131224 78 172 0.0 0.0 0.00 0.00 0.00 94 1023.0
20260901130719 78 173 0.0 0.0 0.00 0.00 0.00 94 1023.1
20260901130218 78 169 0.0 0.0 0.00 0.00 0.00 94 1023.2
20260901125711 78 168 0.0 0.0 0.00 0.00 0.00 94 1022.8
20260901125206 78 163 0.0 0.0 0.00 0.00 0.00 95 1023.1
20260901124701 78 170 0.0 0.0 0.00 0.00 0.00 95 1022.8
20260901124200 78 177 0.0 0.0 0.00 0.00 0.00 95 1022.7
20260901123655 78 174 0.0 0.0 0.00 0.00 0.00 96 1022.9
20260901123150 77 176 0.0 0.0 0.00 0.00 0.00 96 1022.8
20260901122648 77 180 0.0 0.0 0.00 0.00 0.00 97 1023.1
20260901122143 77 176 0.0 0.0 0.00 0.00 0.00 98 1022.9
20260901121637 76 178 0.0 0.0 0.00 0.00 0.00 98 1022.7
20260901121132 76 179 0.0 0.0 0.00 0.00 0.00 99 1022.6
20260901120626 76 179 0.0 0.0 0.00 0.00 0.00 99 1022.6
20260901120121 76 183 0.0 0.0 0.00 0.00 0.00 99 1022.6
20260901115617 76 180 0.0 0.0 0.00 0.00 0.00 99 1022.4
20260901115114 75 175 0.0 0.0 0.00 0.00 0.00 99 1022.5
20260901114610 75 183 0.0 0.0 0.00 0.00 0.00 99 1022.5
20260901114108 75 179 0.0 0.0 0.00 0.00 0.00 99 1022.4
20260901113607 74 183 0.0 0.0 0.00 0.00 0.00 99 1022.3
20260901113057 74 180 0.0 0.0 0.00 0.00 0.00 99 1022.2
20260901112556 74 181 0.0 0.0 0.00 0.00 0.00 99 1022.1
20260901112051 74 180 0.0 0.0 0.00 0.00 0.00 99 1022.2
20260901111550 74 180 0.0 0.0 0.00 0.00 0.00 99 1021.9
20260901111049 74 181 0.0 0.0 0.00 0.00 0.00 99 1022.0
20260901110545 75 181 0.0 0.0 0.00 0.00 0.00 99 1022.0
20260901110041 75 180 0.0 0.0 0.00 0.00 0.00 99 1022.0
20260901105537 74 180 0.0 0.0 0.00 0.00 0.00 99 1021.8
20260901105036 74 180 0.0 0.0 0.00 0.00 0.00 99 1022.0
20260901104532 74 182 0.0 0.0 0.00 0.00 0.00 99 1021.8
20260901104027 74 183 0.0 0.0 0.00 0.00 0.00 99 1021.6
20260901103522 74 181 0.0 0.0 0.00 0.00 0.00 99 1021.7
20260901103018 74 184 0.0 0.0 0.00 0.00 0.00 99 1021.8
20260901102517 74 181 0.0 0.0 0.00 0.00 0.00 99 1021.9
20260901102012 75 181 0.0 0.0 0.00 0.00 0.00 99 1021.5
20260901101508 75 182 0.0 0.0 0.00 0.00 0.00 99 1021.7
20260901101007 75 181 0.0 0.0 0.00 0.00 0.00 99 1021.5
20260901100502 75 183 0.0 0.0 0.00 0.00 0.00 99 1021.6
20260901100000 75 183 0.0 0.0 0.00 0.00 0.00 99 1021.5
20260901095500 75 180 0.0 0.0 0.00 0.00 0.00 99 1021.7
20260901094957 75 180 0.0 0.0 0.00 0.00 0.00 99 1021.4
20260901094453 75 180 0.0 0.0 0.00 0.00 0.00 99 1021.6
20260901093952 75 180 0.0 0.0 0.00 0.00 0.00 99 1021.4
20260901093447 75 182 0.0 0.0 0.00 0.00 0.00 99 1021.4
20260901092941 75 183 0.0 0.0 0.00 0.00 0.00 99 1021.2
20260901092437 75 182 0.0 0.0 0.00 0.00 0.00 99 1021.4
20260901091934 75 182 0.0 0.0 0.00 0.00 0.00 99 1021.5
20260901091433 75 183 0.0 0.0 0.00 0.00 0.00 99 1021.4
20260901090929 75 182 0.0 0.0 0.00 0.00 0.00 99 1021.2
20260901090428 75 182 0.0 0.0 0.00 0.00 0.00 99 1021.1
20260901085924 75 181 0.0 0.0 0.00 0.00 0.00 99 1021.1
20260901085420 75 183 0.0 0.0 0.00 0.00 0.00 99 1021.2
20260901084916 75 180 0.0 0.0 0.00 0.00 0.00 99 1021.1
20260901084413 76 181 0.0 0.0 0.00 0.00 0.00 99 1021.1
20260901083908 76 181 0.0 0.0 0.00 0.00 0.00 99 1021.2
20260901083408 76 182 0.0 0.0 0.00 0.00 0.00 99 1021.3
20260901082905 76 181 0.0 0.0 0.00 0.00 0.00 99 1021.1
20260901082401 76 181 0.0 0.0 0.00 0.00 0.00 99 1021.5
20260901081855 76 180 0.0 0.0 0.00 0.00 0.00 99 1021.1
20260901081351 76 180 0.0 0.0 0.00 0.00 0.00 99 1021.3
20260901080851 76 180 0.0 0.0 0.00 0.00 0.00 99 1021.2
20260901080345 76 182 0.0 0.0 0.00 0.00 0.00 99 1021.2
20260901075840 75 181 0.0 0.0 0.00 0.00 0.00 99 1021.1
20260901075335 75 180 0.0 0.0 0.00 0.00 0.00 99 1021.2
20260901074830 75 181 0.0 0.0 0.00 0.00 0.00 99 1021.0
20260901074324 75 183 0.0 0.0 0.00 0.00 0.00 99 1021.1
20260901073820 75 182 0.0 0.0 0.00 0.00 0.00 99 1021.0
20260901073315 75 182 0.0 0.0 0.00 0.00 0.00 99 1021.0
20260901072812 75 181 0.0 0.0 0.00 0.00 0.00 99 1021.2
20260901072311 75 181 0.0 0.0 0.00 0.00 0.00 99 1021.1
20260901071807 75 181 0.0 0.0 0.00 0.00 0.00 99 1021.2
20260901071305 75 182 0.0 0.0 0.00 0.00 0.00 99 1021.0
20260901070804 75 182 0.0 0.0 0.00 0.00 0.00 99 1020.8
20260901070259 75 181 0.0 0.0 0.00 0.00 0.00 99 1021.0
20260901065759 75 181 0.0 0.0 0.00 0.00 0.00 99 1020.9
20260901065254 75 181 0.0 0.0 0.00 0.00 0.00 99 1020.9
20260901064750 75 181 0.0 0.0 0.00 0.00 0.00 99 1021.1
20260901064246 75 181 0.0 0.0 0.00 0.00 0.00 99 1021.1
20260901063743 75 181 0.0 0.0 0.00 0.00 0.00 99 1021.0
20260901063239 75 181 0.0 0.0 0.00 0.00 0.00 99 1021.0
20260901062735 75 181 0.0 0.0 0.00 0.00 0.00 99 1021.1
20260901062230 75 181 0.0 0.0 0.00 0.00 0.00 99 1021.3
20260901061726 75 181 0.0 0.0 0.00 0.00 0.00 99 1021.0
20260901061225 75 182 0.0 0.0 0.00 0.00 0.00 99 1021.2
20260901060721 75 180 0.0 0.0 0.00 0.00 0.00 99 1021.2
20260901060216 75 180 0.0 0.0 0.00 0.00 0.00 99 1021.0
20260901055712 75 181 0.0 0.0 0.00 0.00 0.00 98 1021.2
20260901055208 75 180 0.0 0.0 0.00 0.00 0.00 98 1021.3
20260901054705 75 180 0.0 0.0 0.00 0.00 0.00 98 1021.3
20260901054201 75 180 0.0 0.0 0.00 0.00 0.00 98 1021.3
20260901053657 75 180 0.0 0.0 0.00 0.00 0.00 98 1021.3
20260901053152 75 180 0.0 0.0 0.00 0.00 0.00 98 1021.3
20260901052648 75 180 0.0 0.0 0.00 0.00 0.00 98 1021.2
20260901052143 75 180 0.0 0.0 0.00 0.00 0.00 98 1021.3
20260901051642 75 180 0.0 0.0 0.00 0.00 0.00 98 1021.3
20260901051141 76 180 0.0 0.0 0.00 0.00 0.00 98 1021.1
20260901050637 75 180 0.0 0.0 0.00 0.00 0.00 98 1021.3
20260901050133 75 181 0.0 0.0 0.00 0.00 0.00 98 1021.1
20260901045632 75 180 0.0 0.0 0.00 0.00 0.00 97 1021.1
20260901045127 75 180 0.0 0.0 0.00 0.00 0.00 97 1021.4
20260901044623 75 180 0.0 0.0 0.00 0.00 0.00 97 1021.3
20260901044119 75 180 0.0 0.0 0.00 0.00 0.00 97 1021.1
20260901043614 75 180 0.0 0.0 0.00 0.00 0.00 97 1021.4
20260901043110 75 180 0.0 0.0 0.00 0.00 0.00 97 1021.0
20260901042609 75 180 0.0 0.0 0.00 0.00 0.00 96 1021.2
20260901042104 75 180 0.0 0.0 0.00 0.00 0.00 96 1021.2
20260901041600 75 180 0.0 0.0 0.00 0.00 0.00 96 1021.1
20260901041055 76 180 0.0 0.0 0.00 0.00 0.00 96 1021.1
20260901040554 76 180 0.0 0.0 0.00 0.00 0.00 96 1021.0
20260901040049 76 180 0.0 0.0 0.00 0.00 0.00 96 1021.3
20260901035547 76 180 0.0 0.0 0.00 0.00 0.00 96 1021.0
20260901035045 76 180 0.0 0.0 0.00 0.00 0.00 96 1021.1
20260901034540 76 179 0.0 0.0 0.00 0.00 0.00 95 1021.2
20260901034035 76 179 0.0 0.0 0.00 0.00 0.00 95 1021.4
20260901033533 76 179 0.0 0.0 0.00 0.00 0.00 95 1021.3
20260901033033 76 179 0.0 0.0 0.00 0.00 0.00 94 1021.3
20260901032532 76 179 0.0 0.0 0.00 0.00 0.00 94 1021.1
20260901032027 76 179 0.0 0.0 0.00 0.00 0.00 94 1021.2
20260901031523 76 179 0.0 0.0 0.00 0.00 0.00 94 1021.3
20260901031019 76 179 0.0 0.0 0.00 0.00 0.00 93 1021.2
20260901030518 76 179 0.0 0.0 0.00 0.00 0.00 93 1021.3
20260901030013 76 179 0.0 0.0 0.00 0.00 0.00 93 1021.3
20260901025512 76 179 0.0 0.0 0.00 0.00 0.00 93 1021.3
20260901025007 76 179 0.0 0.0 0.00 0.00 0.00 93 1021.4
20260901024502 77 179 0.0 0.0 0.00 0.00 0.00 92 1021.3
20260901024001 77 180 0.0 0.0 0.00 0.00 0.00 92 1021.3
20260901023455 77 180 0.0 0.0 0.00 0.00 0.00 92 1021.3
20260901022950 77 178 0.0 0.0 0.00 0.00 0.00 91 1021.1
20260901022445 77 178 0.0 0.0 0.00 0.00 0.00 91 1021.2
20260901021940 77 178 0.0 0.0 0.00 0.00 0.00 91 1021.2
20260901021436 77 179 0.0 0.0 0.00 0.00 0.00 91 1021.1
20260901020931 77 180 0.0 0.0 0.00 0.00 0.00 91 1021.1
20260901020426 77 178 0.0 0.0 0.00 0.00 0.00 90 1021.0
20260901015925 77 178 0.0 0.0 0.00 0.00 0.00 90 1021.1
20260901015422 77 178 0.0 0.0 0.00 0.00 0.00 89 1021.0
20260901014921 78 179 0.0 0.0 0.00 0.00 0.00 89 1020.8
20260901014418 78 178 0.0 0.0 0.00 0.00 0.00 88 1020.8
20260901013913 78 180 0.0 0.0 0.00 0.00 0.00 88 1020.7
20260901013408 78 182 0.0 0.0 0.00 0.00 0.00 88 1020.6
20260901012904 78 239 0.0 0.0 0.00 0.00 0.00 88 1020.7
20260901012359 78 250 0.0 0.0 0.00 0.00 0.00 88 1020.5
20260901011854 78 273 0.0 0.0 0.00 0.00 0.00 88 1020.4
20260901011350 78 271 0.0 0.0 0.00 0.00 0.00 88 1020.5
20260901010848 79 269 0.0 0.0 0.00 0.00 0.00 88 1020.6
20260901010343 78 270 0.0 0.0 0.00 0.00 0.00 87 1020.4
20260901005842 79 273 0.0 0.0 0.00 0.00 0.00 88 1020.3
20260901005337 79 271 0.0 0.0 0.00 0.00 0.00 88 1020.2
20260901004833 79 271 0.0 0.0 0.00 0.00 0.00 87 1020.3
20260901004326 80 271 0.0 0.0 0.00 0.00 0.00 86 1020.0
20260901003821 80 271 0.0 0.0 0.00 0.00 0.00 86 1020.0
20260901003316 80 272 0.0 0.0 0.00 0.00 0.00 86 1019.9
20260901002815 80 273 0.0 0.0 0.00 0.00 0.00 86 1020.1
20260901002309 81 274 0.0 0.0 0.00 0.00 0.00 85 1020.2
20260901001804 81 274 0.0 0.0 0.00 0.00 0.00 84 1019.9
20260901001259 81 275 0.0 0.0 0.00 0.00 0.00 84 1020.2
20260901000754 82 276 0.0 0.0 0.00 0.00 0.00 83 1020.1
20260901000250 82 274 0.0 0.0 0.00 0.00 0.00 83 1020.0
20260831235748 83 271 0.0 0.0 0.00 0.00 0.00 82 1020.0
20260831235244 84 278 0.0 0.0 0.00 0.00 0.00 82 1020.2
20260831234739 84 274 0.0 0.0 0.00 0.00 0.00 81 1020.0
20260831234238 85 273 0.0 0.0 0.00 0.00 0.00 80 1020.2
20260831233734 85 274 0.0 0.0 0.00 0.00 0.00 79 1020.2
20260831233229 86 277 0.0 0.0 0.00 0.00 0.00 77 1020.2
20260831232724 87 278 0.0 0.0 0.00 0.00 0.00 77 1020.2
20260831232220 87 274 0.0 0.0 0.00 0.00 0.00 76 1020.1
20260831231716 88 272 0.0 0.0 0.00 0.00 0.00 76 1020.1
20260831231212 88 271 0.0 0.0 0.00 0.00 0.00 75 1020.3
20260831230712 88 271 0.0 0.0 0.00 0.00 0.00 69 1020.4
20260831230208 89 271 0.0 0.0 0.00 0.00 0.00 68 1020.3
20260831225707 89 291 0.0 0.0 0.00 0.00 0.00 69 1020.4
20260831225202 89 266 0.0 0.0 0.00 0.00 0.00 60 1020.3
20260831224656 89 274 0.0 0.0 0.00 0.00 0.00 58 1020.3
20260831224152 89 317 0.0 0.0 0.00 0.00 0.00 59 1020.3
20260831223647 89 275 0.0 0.0 0.00 0.00 0.00 59 1020.3
20260831223144 90 309 0.0 0.0 0.00 0.00 0.00 59 1020.1
20260831222639 90 272 0.0 0.0 0.00 0.00 0.00 60 1020.5
20260831222134 90 332 0.0 0.0 0.00 0.00 0.00 61 1020.4
20260831221630 90 302 0.0 0.0 0.00 0.00 0.00 59 1020.4
20260831221125 89 325 0.0 0.0 0.00 0.00 0.00 59 1020.5
20260831220620 89 280 0.0 0.0 0.00 0.00 0.00 59 1020.8
20260831220115 89 329 0.0 0.0 0.00 0.00 0.00 59 1020.4
20260831215610 89 298 0.0 0.0 0.00 0.00 0.00 60 1020.9
20260831215106 89 313 0.0 0.0 0.00 0.00 0.00 60 1020.7
20260831214603 89 333 0.0 0.0 0.00 0.00 0.00 61 1020.7
20260831214059 89 335 0.0 0.0 0.00 0.00 0.00 61 1020.7
20260831213556 90 334 0.0 0.0 0.00 0.00 0.00 58 1020.8
20260831213052 90 276 0.0 0.0 0.00 0.00 0.00 58 1020.7
20260831212548 90 274 0.0 0.0 0.00 0.00 0.00 55 1020.8
20260831212043 90 317 0.0 0.0 0.00 0.00 0.00 59 1021.0
20260831211537 91 287 0.0 0.0 0.00 0.00 0.00 58 1020.6
20260831211036 91 231 0.0 0.0 0.00 0.00 0.00 57 1020.8
20260831210532 91 234 0.0 0.0 0.00 0.00 0.00 58 1020.9
20260831210028 91 270 0.0 0.0 0.00 0.00 0.00 59 1020.8
20260831205522 91 227 0.0 0.0 0.00 0.00 0.00 56 1020.9
20260831205018 91 250 0.0 0.0 0.00 0.00 0.00 57 1021.0
20260831204518 93 246 0.0 0.0 0.00 0.00 0.00 56 1021.3
20260831204016 93 263 0.0 0.0 0.00 0.00 0.00 55 1021.2
20260831203511 91 275 0.0 0.0 0.00 0.00 0.00 58 1021.2
20260831203010 91 183 0.0 0.0 0.00 0.00 0.00 55 1021.1
20260831202504 92 236 0.0 0.0 0.00 0.00 0.00 56 1021.1
20260831202004 93 273 0.0 0.0 0.00 0.00 0.00 53 1021.4
20260831201502 92 257 0.0 0.0 0.00 0.00 0.00 55 1021.4
20260831200958 91 262 0.0 0.0 0.00 0.00 0.00 56 1021.1
20260831200454 90 255 0.0 0.0 0.00 0.00 0.00 59 1021.3
20260831195948 90 238 0.0 0.0 0.00 0.00 0.00 58 1021.5
20260831195444 91 238 0.0 0.0 0.00 0.00 0.00 58 1021.6
20260831194938 91 298 0.0 0.0 0.00 0.00 0.00 58 1021.7
20260831194434 90 234 0.0 0.0 0.00 0.00 0.00 59 1021.7
20260831193933 90 268 0.0 0.0 0.00 0.00 0.00 61 1022.0
20260831193429 91 241 0.0 0.0 0.00 0.00 0.00 60 1021.9
20260831192924 91 244 0.0 0.0 0.00 0.00 0.00 61 1021.8
20260831192419 90 268 0.0 0.0 0.00 0.00 0.00 60 1022.1
20260831191914 90 331 0.0 0.0 0.00 0.00 0.00 58 1022.2
20260831191410 90 233 0.0 0.0 0.00 0.00 0.00 58 1022.1
20260831190906 90 328 0.0 0.0 0.00 0.00 0.00 59 1022.0
20260831190406 90 293 0.0 0.0 0.00 0.00 0.00 60 1022.0
20260831185905 90 319 0.0 0.0 0.00 0.00 0.00 60 1022.2
20260831185401 90 335 0.0 0.0 0.00 0.00 0.00 61 1022.1
20260831184900 89 302 0.0 0.0 0.00 0.00 0.00 61 1022.3
20260831184356 89 290 0.0 0.0 0.00 0.00 0.00 64 1022.2
20260831183851 90 283 0.0 0.0 0.00 0.00 0.00 61 1022.5
20260831183350 89 271 0.0 0.0 0.00 0.00 0.00 64 1022.5
20260831182850 90 294 0.0 0.0 0.00 0.00 0.00 61 1022.4
20260831182345 89 278 0.0 0.0 0.00 0.00 0.00 63 1022.5
20260831181840 89 293 0.0 0.0 0.00 0.00 0.00 64 1022.6
20260831181336 89 277 0.0 0.0 0.00 0.00 0.00 63 1022.6
20260831180830 89 258 0.0 0.0 0.00 0.00 0.00 64 1022.8
20260831180325 89 293 0.0 0.0 0.00 0.00 0.00 64 1022.9
20260831175824 90 286 0.0 0.0 0.00 0.00 0.00 63 1022.7
20260831175321 89 253 0.0 0.0 0.00 0.00 0.00 62 1022.8
20260831174816 89 257 0.0 0.0 0.00 0.00 0.00 65 1022.9
20260831174312 88 282 0.0 0.0 0.00 0.00 0.00 69 1022.9
20260831173811 88 301 0.0 0.0 0.00 0.00 0.00 68 1023.1
20260831173305 89 289 0.0 0.0 0.00 0.00 0.00 68 1022.9
20260831172800 88 281 0.0 0.0 0.00 0.00 0.00 69 1023.1
20260831172255 88 291 0.0 0.0 0.00 0.00 0.00 68 1023.3
20260831171749 89 254 0.0 0.0 0.00 0.00 0.00 69 1023.0
20260831171247 88 280 0.0 0.0 0.00 0.00 0.00 70 1023.2
20260831170743 88 280 0.0 0.0 0.00 0.00 0.00 69 1023.2
20260831170239 89 279 0.0 0.0 0.00 0.00 0.00 70 1023.3
20260831165736 89 259 0.0 0.0 0.00 0.00 0.00 69 1023.3
20260831165232 89 273 0.0 0.0 0.00 0.00 0.00 69 1023.4
20260831164727 89 278 0.0 0.0 0.00 0.00 0.00 69 1023.3
20260831164223 89 277 0.0 0.0 0.00 0.00 0.00 69 1023.4
20260831163718 88 263 0.0 0.0 0.00 0.00 0.00 70 1023.5
20260831163214 87 275 0.0 0.0 0.00 0.00 0.00 70 1023.4
20260831162713 87 281 0.0 0.0 0.00 0.00 0.00 72 1023.7
20260831162212 86 287 0.0 0.0 0.00 0.00 0.00 74 1023.7
20260831161707 87 262 0.0 0.0 0.00 0.00 0.00 73 1023.8
20260831161203 86 270 0.0 0.0 0.00 0.00 0.00 76 1023.8
20260831160703 86 270 0.0 0.0 0.00 0.00 0.00 77 1023.7
20260831160158 85 249 0.0 0.0 0.00 0.00 0.00 77 1023.8
20260831155657 85 243 0.0 0.0 0.00 0.00 0.00 79 1023.8
20260831155153 84 246 0.0 0.0 0.00 0.00 0.00 79 1023.8
20260831154649 84 246 0.0 0.0 0.00 0.00 0.00 82 1023.9
20260831154144 83 241 0.0 0.0 0.00 0.00 0.00 81 1023.8
20260831153643 83 252 0.0 0.0 0.00 0.00 0.00 82 1023.7
20260831153140 82 244 0.0 0.0 0.00 0.00 0.00 83 1023.8
20260831152635 82 255 0.0 0.0 0.00 0.00 0.00 84 1024.0
20260831152131 82 245 0.0 0.0 0.00 0.00 0.00 84 1024.0
20260831151630 82 247 0.0 0.0 0.00 0.00 0.00 83 1024.0
20260831151125 82 261 0.0 0.0 0.00 0.00 0.00 84 1023.8
20260831150620 82 275 0.0 0.0 0.00 0.00 0.00 84 1023.7
20260831150116 81 270 0.0 0.0 0.00 0.00 0.00 85 1023.9
20260831145609 81 282 0.0 0.0 0.00 0.00 0.00 85 1023.7
20260831145106 81 258 0.0 0.0 0.00 0.00 0.00 85 1023.9
20260831144602 81 246 0.0 0.0 0.00 0.00 0.00 86 1024.0
20260831144057 80 262 0.0 0.0 0.00 0.00 0.00 85 1023.8
20260831143551 80 244 0.0 0.0 0.00 0.00 0.00 85 1023.8
20260831143047 81 249 0.0 0.0 0.00 0.00 0.00 85 1023.9
20260831142543 80 280 0.0 0.0 0.00 0.00 0.00 85 1023.7
20260831142044 80 257 0.0 0.0 0.00 0.00 0.00 85 1023.8
20260831141542 80 294 0.0 0.0 0.00 0.00 0.00 85 1023.9